Tracking 23726 objects as of 23-Sep-2021
HD Live streaming from Space Station
objects crossing your sky now

STARLINK-1202

Track STARLINK-1202 now!
10-day predictions
STARLINK-1202 is classified as:


NORAD ID: 45183
Int'l Code: 2020-012F
Perigee: 552.9 km
Apogee: 555.9 km
Inclination: 53.1 °
Period: 95.6 minutes
Semi major axis: 6925 km
RCS: Unknown
Launch date: February 17, 2020
Source: United States (US)
Launch site: AIR FORCE EASTERN TEST RANGE (AFETR)
aabbcc
Your satellite tracking list
Your tracking list is empty




NASA's NSSDC Master Catalog

Two Line Element Set (TLE):
1 45183U 20012F   21265.42580442  .00001917  00000-0  14760-3 0  9990
2 45183  53.0543 160.6699 0002177  66.3073 293.8145 15.06395752 89273
Source of the keplerian elements: AFSPC